This demonstration page uses our WeatherBlox Daily Observations layout. Learn more.

Left ArrowRight Arrow

Hourly Observations for February 27, 2016

Temp ( °F °C ) Dew Point ( °F °C ) Humidity (%) Winds ( mph kmh ) Pressure ( in mb ) Visibility ( mi km ) Precip ( " mm )
12:15 am 00:15 Clear 39 3.8 19 -7.1 45 45 SW 8 13 30.12 1020 10 16 N/A
12:35 am 00:35 Clear 38 3.5 19 -7 47 47 SW 8 13 30.12 1020 10 16 N/A
12:55 am 00:55 Clear 37 2.9 20 -6.6 50 50 SW 8 13 30.15 1021 10 16 N/A
1:15 am 01:15 Clear 37 3 20 -6.6 50 50 SW 8 13 30.15 1021 10 16 N/A
1:35 am 01:35 Clear 36 2.1 20 -6.6 53 53 SW 8 13 30.15 1021 10 16 N/A
1:55 am 01:55 Clear 35 1.7 20 -6.6 54 54 SW 6 9 30.15 1021 10 16 N/A
2:15 am 02:15 Clear 34 1.1 20 -6.5 57 57 SW 5 7 30.15 1021 10 16 N/A
2:35 am 02:35 Clear 35 1.9 21 -6.3 55 55 SW 6 9 30.15 1021 10 16 N/A
2:55 am 02:55 Clear 35 1.5 21 -6.2 57 57 SW 7 11 30.12 1020 10 16 N/A
3:15 am 03:15 Clear 34 1.2 21 -6.2 58 58 SW 6 9 30.12 1020 10 16 N/A
3:35 am 03:35 Clear 35 1.5 21 -6.2 57 57 SW 6 9 30.12 1020 10 16 N/A
3:55 am 03:55 Clear 34 0.9 21 -6.3 59 59 SW 7 11 30.09 1019 10 16 N/A
4:15 am 04:15 Clear 37 2.8 20 -6.4 51 51 WSW 8 13 30.06 1018 10 16 N/A
4:35 am 04:35 Clear 38 3.5 20 -6.6 48 48 SW 9 15 30.06 1018 10 16 N/A
4:55 am 04:55 Clear 38 3.5 20 -6.6 48 48 SW 9 15 30.06 1018 10 16 N/A
5:15 am 05:15 Clear 38 3.6 20 -6.8 47 47 WSW 10 17 30.03 1017 10 16 N/A
5:35 am 05:35 Clear 38 3.6 19 -7 46 46 SW 12 19 30.03 1017 10 16 N/A
5:55 am 05:55 Clear 38 3.3 20 -6.9 48 48 SW 10 17 30.03 1017 10 16 N/A
6:15 am 06:15 Clear 40 4.5 19 -7.1 43 43 WSW 12 19 30.03 1017 10 16 N/A
6:35 am 06:35 Clear 41 4.8 19 -7.2 42 42 WSW 12 19 30.03 1017 10 16 N/A
6:55 am 06:55 Clear 40 4.6 19 -7.2 42 42 WSW 10 17 30.03 1017 10 16 N/A
7:15 am 07:15 Sunny 39 3.7 19 -7 46 46 SW 10 17 30.00 1016 10 16 N/A
7:35 am 07:35 Sunny 37 3 20 -6.8 49 49 SW 9 15 30.00 1016 10 16 N/A
7:55 am 07:55 Sunny 38 3.5 20 -6.7 48 48 SW 10 17 30.00 1016 10 16 N/A
8:15 am 08:15 Sunny 39 4 21 -6.2 48 48 SW 8 13 30.00 1016 10 16 N/A
8:35 am 08:35 Sunny 41 5.2 21 -6.1 44 44 SW 10 17 30.00 1016 10 16 N/A
8:55 am 08:55 Sunny 44 6.9 22 -5.6 41 41 SW 12 19 29.94 1014 10 16 N/A
9:15 am 09:15 Sunny 47 8.5 22 -5.7 36 36 SW 13 20 29.91 1013 10 16 N/A
9:35 am 09:35 Sunny 49 9.5 22 -5.5 35 35 SW 13 20 29.91 1013 10 16 N/A
9:55 am 09:55 Sunny 51 10.4 22 -5.3 33 33 SW 13 20 29.91 1013 10 16 N/A
10:15 am 10:15 Sunny 52 11 23 -5.2 32 32 SW 12 19 29.88 1012 10 16 N/A
10:35 am 10:35 Sunny 53 11.8 23 -4.9 31 31 SW 13 20 29.85 1011 10 16 N/A
10:55 am 10:55 Sunny 55 12.7 24 -4.4 30 30 SW 10 17 29.85 1011 10 16 N/A
11:15 am 11:15 Sunny 56 13.4 25 -4 30 30 SW 13 20 29.83 1010 10 16 N/A
11:35 am 11:35 Sunny 57 14 25 -3.9 29 29 SW 9 15 29.83 1010 10 16 N/A
11:55 am 11:55 Sunny 59 15.1 26 -3.6 28 28 SW 12 19 29.80 1009 10 16 N/A
12:15 pm 12:15 Sunny 62 16.5 25 -3.7 25 25 SSW 13 20 29.77 1008 10 16 N/A
12:35 pm 12:35 Sunny 64 17.9 26 -3.6 23 23 SW 12 19 29.74 1007 10 16 N/A
12:55 pm 12:55 Sunny 66 18.7 26 -3.6 22 22 SW 12 19 29.74 1007 10 16 N/A
1:15 pm 13:15 Sunny 67 19.4 26 -3.6 21 21 SSW 12 19 29.71 1006 10 16 N/A
1:35 pm 13:35 Sunny 69 20.3 25 -3.7 20 20 SSW 14 22 29.71 1006 10 16 N/A
1:55 pm 13:55 Sunny 69 20.6 26 -3.5 20 20 SSW 12 19 29.68 1005 10 16 N/A
2:15 pm 14:15 Sunny 70 20.9 26 -3.5 19 19 SW 10 17 29.68 1005 10 16 N/A
2:35 pm 14:35 Sunny 72 22 25 -3.9 17 17 SW 14 22 29.65 1004 10 16 N/A
2:55 pm 14:55 Sunny 72 22 25 -4 17 17 SSW 17 28 29.65 1004 10 16 N/A
3:15 pm 15:15 Sunny 73 22.5 25 -4 17 17 SW 15 24 29.62 1003 10 16 N/A
3:35 pm 15:35 Sunny 73 22.7 25 -4.1 16 16 SW 12 19 29.62 1003 10 16 N/A
3:55 pm 15:55 Sunny 73 23 24 -4.4 16 16 SW 15 24 29.62 1003 10 16 N/A
4:15 pm 16:15 Sunny 72 22.2 23 -5 16 16 SSW 17 28 29.59 1002 10 16 N/A
4:35 pm 16:35 Sunny 72 22.1 23 -5.1 16 16 SSW 13 20 29.59 1002 10 16 N/A
4:55 pm 16:55 Sunny 71 21.7 24 -4.3 17 17 SW 12 19 29.59 1002 10 16 N/A
5:15 pm 17:15 Sunny 72 22 24 -4.6 16 16 SW 12 19 29.59 1002 10 16 N/A
5:35 pm 17:35 Sunny 70 21.2 26 -3.4 19 19 SW 10 17 29.59 1002 10 16 N/A
5:55 pm 17:55 Sunny 67 19.4 26 -3.2 22 22 SW 7 11 29.62 1003 10 16 N/A
6:15 pm 18:15 Sunny 64 17.5 26 -3.1 24 24 SW 5 7 29.59 1002 10 16 N/A
6:35 pm 18:35 Clear 62 16.5 26 -3.4 26 26 SSW 6 9 29.59 1002 10 16 N/A
6:55 pm 18:55 Clear 59 14.8 25 -3.7 28 28 SSW 9 15 29.62 1003 10 16 N/A
7:15 pm 19:15 Clear 59 14.9 25 -3.8 27 27 SSW 8 13 29.62 1003 10 16 N/A
7:35 pm 19:35 Clear 57 14.1 26 -3.6 29 29 SSW 7 11 29.62 1003 10 16 N/A
7:55 pm 19:55 Clear 55 12.7 26 -3.1 33 33 SSW 7 11 29.62 1003 10 16 N/A
8:15 pm 20:15 Clear 54 12.4 27 -2.8 35 35 SSW 7 11 29.62 1003 10 16 N/A
8:35 pm 20:35 Clear 54 12.4 27 -3 34 34 SSW 7 11 29.62 1003 10 16 N/A
8:55 pm 20:55 Clear 54 12.4 26 -3.1 34 34 SSW 7 11 29.62 1003 10 16 N/A
9:15 pm 21:15 Clear 53 11.7 26 -3.1 36 36 S 8 13 29.62 1003 10 16 N/A
9:35 pm 21:35 Clear 53 11.4 26 -3.1 36 36 SSW 9 15 29.62 1003 10 16 N/A
9:55 pm 21:55 Clear 52 11.1 27 -2.6 39 39 SSW 7 11 29.59 1002 10 16 N/A
10:15 pm 22:15 Clear 51 10.8 28 -2.2 41 41 SSW 6 9 29.59 1002 10 16 N/A
10:35 pm 22:35 Clear 53 11.6 28 -2.2 38 38 SSW 8 13 29.59 1002 10 16 N/A
10:55 pm 22:55 Clear 52 11.1 28 -2 40 40 SSW 10 17 29.59 1002 10 16 N/A
11:15 pm 23:15 Clear 52 11 28 -2.1 40 40 SSW 9 15 29.59 1002 10 16 N/A
11:35 pm 23:35 Clear 50 10.1 28 -2 43 43 NW 14 22 29.62 1003 10 16 N/A
11:55 pm 23:55 Clear 52 10.9 28 -2.3 40 40 WNW 7 11 29.65 1004 10 16 N/A

Powered by AerisWeather